Location: Aydie
(43.5695°N, 0.1043°W)
Time: 07:13:59
(UTC+00:00)

Iridium 4 Rocket - Pass Details

Date: 17 November 2025
Orbit: 579 x 887 km, 86.9° (Epoch: 13 December)

Event Time Altitude Azimuth Distance (km) Brightness Sun altitude
Rises 16:56:55 0° 190° (S) 3,274 7.3 -4.7°
Reaches altitude 10° 16:59:23 10° 194° (SSW) 2,302 6.5 -5.1°
Maximum altitude 17:04:26 60° 274° (W) 825 4.1 -6.0°
Drops below altitude 10° 17:09:06 10° 355° (N) 2,120 5.7 -6.8°
Sets 17:11:18 0° 359° (N) 2,993 6.4 -7.2°
